OBJECT AF, 69009

Orbit data source: Space-Track

You're viewing an uncataloged RSO

Recently launched and/or uncataloged RSOs may have evolving metadata. Metadata may include the following, but is not limited to: Owner, Manufacturer, Bus, Motor, and Mission.

OBJECT AF, 69009 is a satellite in SSO that was launched on Sun, 03 May 2026 UTC via an FALCON 9 launch vehicle from the Air Force Western Test Range (AFWTR). Unknown objects in Earth's orbit typically refer to objects detected orbiting the Earth but have not yet been identified or cataloged. These objects could be anything from previously untracked satellites, spent rocket stages, debris from satellite collisions, or even natural meteoroids temporarily captured by Earth's gravity.

Loading next visibility...
Identifier
69009, 2026-100AF
Orbit
SSO
Country
Flag of TBDTBD
Related business
None
Manufacturer
Unknown
Mission
Operational Amateur Science
Bus & Motor
Unknown
Mass
Unknown
Launch date (UTC)
2026-05-03 (4 months ago)
Launch vehicle
FALCON 9
Launch site
Air Force Western Test Range (AFWTR)
Object type
Unknown
Shape & HBR
Box, 0.2 m
Radar Cross Section
0.035 m², Medium (>0.1 m² and < 1m²)

Expand to show TLE details & history
Last TLE update: 1 day ago

TLE from 1 day ago
0 OBJECT AF
1 69009U 26100AF  26254.68361656  .00008459  00000-0  37560-3 0  9993
2 69009  97.3917 150.9300 0006113  53.8648 306.3153 15.21783212 19952
Epoch: 2026-09-11T16:24Z
TLE epoch observation values (Epoch: 2026-09-11T16:24:24.470Z)
Latitude
-0.00005°
Longitude
-85.8754°
Altitude
501.066 km
Speed
7.615 km/s
True Right ascension
10h 03m 43s
True Declination
0° 00' 00"
Sunlit
Object was in daylight at epoch
Visualization orbit readout
Latitude
Unknown
Longitude
Unknown
Altitude
Unknown
Speed
Unknown
Apparent Right ascension
Unknown
Apparent Declination
Unknown
Sunlit
N/A
Visualization observer readout
Local Sidereal Time
09:50:58
Azimuth
Unknown
Elevation
Unknown
Doppler factor
Unknown
Orbital elements
Apogee altitude
501.628 km
Perigee altitude
493.222 km
Semi-major axis
6,875.562 km
Eccentricity
0.00061
Inclination
97.3917°
RAAN
150.93°
Arg. of periapsis
53.8648°
True anomaly
306.25883°
Mean anomaly
306.3153°
Eccentric anomaly
306.28707°
Mean motion
3.80698 °/min
Orbital period
94.56 mins
BSTAR
0.0003756
Loading maneuver chart data...
Computing Atmospheric mass density...
Loading historical data...
Loading historical data...
Loading historical data...
Loading historical data...
Loading historical data...
Loading historical data...
Loading historical data...

Documentation

Showing up to 5 results
|